Regional Weather Roundup
Issued by NWS

Home | Current Version | Previous Version | Text Only | Print | Product List | Glossary On
Versions: 1 2 3 4 5 6 7 8 9 10 11 12 13 14 15 16 17 18 19 20 21 22 23 24 25 26 27 28 29 30 31 32 33 34 35 36 37 38 39 40 41 42 43 44 45 46 47 48 49
000
ASUS45 KCYS 261210
RWRWY

WYOMING REGIONAL WEATHER ROUNDUP
NATIONAL WEATHER SERVICE CHEYENNE WY
500 AM MST MON JAN 26 2015

NOTE:  "FAIR" INDICATES FEW OR NO CLOUDS BELOW 12,000 FEET
WITH NO SIGNIFICANT WEATHER AND/OR OBSTRUCTIONS TO VISIBILITY.

WYZ001-261300-
YELLOWSTONE NATIONAL PARK

CITY           SKY/WX    TMP DP  RH WIND       PRES   REMARKS
LK YELLOWSTONE   N/A     15  12  88 CALM      30.45F
6HR MIN TEMP:  15; 6HR MAX TEMP:  26;

W YELLOWSTONE  NOT AVBL

$$
WYZ002>013-054>058-071-098>099-261300-
NORTHERN WYOMING

CITY           SKY/WX    TMP DP  RH WIND       PRES   REMARKS
JACKSON        CLOUDY    25  23  93 CALM      30.45F
CODY           FAIR      30  27  86 NE3       30.18F
GREYBULL       FAIR      17  16  95 NW6       30.23R WCI   9
6HR MIN TEMP:  15; 6HR MAX TEMP:  24;

WORLAND        FAIR      16  14  92 SW6       30.22R WCI   7
6HR MIN TEMP:  16; 6HR MAX TEMP:  27;

SHERIDAN       FAIR      36  26  67 CALM      30.08S
6HR MIN TEMP:  33; 6HR MAX TEMP:  44;

BUFFALO        FAIR      47  25  42 S3        30.11F
6HR MIN TEMP:  39; 6HR MAX TEMP:  53;

GILLETTE       FAIR      40  28  62 W14       30.09S WCI  32
6HR MIN TEMP:  39; 6HR MAX TEMP:  45;

HULETT           N/A    N/A N/A N/A MISG        N/A
NEWCASTLE      FAIR      43  28  56 NW13      30.09S

$$
WYZ014>020-022>026-101>103-261300-
CENTRAL WYOMING

CITY           SKY/WX    TMP DP  RH WIND       PRES   REMARKS
BIG PINEY      FAIR      28  21  75 CALM      30.39R
6HR MIN TEMP:  23; 6HR MAX TEMP:  34;

PINEDALE       FAIR      18  16  93 CALM      30.39S
DUBOIS         FAIR      39  23  52 NW23      30.33S WCI  29
LANDER         FAIR      31  23  72 W7        30.26S WCI  24
6HR MIN TEMP:  31; 6HR MAX TEMP:  41;

RIVERTON       FAIR      27  23  85 NW3       30.27S
6HR MIN TEMP:  26; 6HR MAX TEMP:  39;

CASPER         FAIR      42  26  53 SW21G26   30.20F
6HR MIN TEMP:  39; 6HR MAX TEMP:  45;

DOUGLAS        FAIR      38  28  67 NW7       30.17S WCI  33
6HR MIN TEMP:  36; 6HR MAX TEMP:  41;


$$
WYZ021-027>030-104>119-261300-
SOUTHERN WYOMING

CITY           SKY/WX    TMP DP  RH WIND       PRES   REMARKS
EVANSTON       FAIR      31  26  82 CALM      30.42R
6HR MIN TEMP:  24; 6HR MAX TEMP:  34;

KEMMERER       FAIR      27  27 100 NW6       30.42R WCI  20
FORT BRIDGER   FAIR      39  28  65 W14       30.43R WCI  30
ROCK SPRINGS   FAIR      32  26  78 SW13      30.39R WCI  22
6HR MIN TEMP:  29; 6HR MAX TEMP:  36;

DIXON          FAIR      23  20  88 CALM      30.45R
RAWLINS        FAIR      38  25  59 SW9G23    30.35R WCI  31
6HR MIN TEMP:  30; 6HR MAX TEMP:  40;

SARATOGA       FAIR      28  23  80 CALM      30.38R
LARAMIE        FAIR      26  19  74 SW7       30.29R WCI  18
6HR MIN TEMP:  23; 6HR MAX TEMP:  38;

CHEYENNE       FAIR      47  23  38 NW13G22   30.20S
6HR MIN TEMP:  46; 6HR MAX TEMP:  49;

TORRINGTON     FAIR      39  28  64 NW12      30.13S WCI  32
6HR MIN TEMP:  38; 6HR MAX TEMP:  42;

PINE BLUFFS    FAIR      46  27  46 NW23G29   30.16S

$$


USA.gov is the U.S. government's official web portal to all federal, state and local government web resources and services.